Regional Weather Roundup
Issued by NWS

Home | Current Version | Previous Version | Graphics & Text | Print | Product List | Glossary On
Versions: 1 2 3 4 5 6 7 8 9 10 11 12 13 14 15 16 17 18 19 20 21 22 23 24 25 26 27 28 29 30 31 32 33 34 35 36 37 38 39 40 41 42 43 44 45 46 47 48 49 50
000
ASUS43 KMKX 190710
RWRWI

WISCONSIN REGIONAL WEATHER ROUNDUP
NATIONAL WEATHER SERVICE MILWAUKEE/SULLIVAN WI
100 AM CST SUN NOV 19 2017

NOTE: "FAIR" INDICATES FEW OR NO CLOUDS BELOW 12,000 FEET WITH NO
SIGNIFICANT WEATHER AND/OR OBSTRUCTIONS TO VISIBILITY.

WIZ001-002-006>008-014>016-023>028-190800-
NORTHWEST WISCONSIN

CITY           SKY/WX    TMP DP  RH WIND       PRES   REMARKS
SUPERIOR ARPT  CLOUDY    18  10  70 W6        29.99F WCI  10
ASHLAND        CLOUDY    20  10  65 W10       29.95R WCI   9
HAYWARD        MOCLDY    19  10  68 NW8       29.95R WCI   9
SIREN          PTCLDY    17  10  73 NW7       30.01R WCI   7
CUMBERLAND     PTCLDY    18  10  73 W14       29.97R WCI   4
RICE LAKE      CLOUDY    20  12  72 W9        29.99R WCI   9
CHETEK         CLOUDY    20  12  71 NW7       29.97R WCI  11
LADYSMITH      MOCLDY    21  12  68 NW14      29.94F WCI   8
EAU CLAIRE     MOCLDY    22  13  68 W9        29.97F WCI  12
MENOMONIE      PTCLDY    21  13  71 W14G20    30.00S WCI   8
NEW RICHMOND   PTCLDY    18  10  73 NW12      30.03R WCI   5
OSCEOLA        CLOUDY    19  11  70 W8        30.06S WCI   9
$$

WIZ003>005-009-010-017-018-190800-
NORTH CENTRAL WISCONSIN

CITY           SKY/WX    TMP DP  RH WIND       PRES   REMARKS
MANITOWISH WTR FLURRIES  19  16  90 NW7       29.84S WCI   9
ARBOR VITAE    FLURRIES  22  17  81 NW9G18    29.84R WCI  11
WOODRUFF       FLURRIES  22  17  81 NW9G18    29.84R WCI  11
RHINELANDER    LGT SNOW N/A N/A N/A W8        29.84R
EAGLE RIVER    LGT SNOW  21  19  90 NW12      29.81R WCI   9
LAND O LAKES   LGT SNOW  22  19  90 NW5       29.82R WCI  16
PHILLIPS       FLURRIES  19  14  79 W7        29.87F WCI  10
TOMAHAWK       FLURRIES  21  14  73 NW8       29.86S WCI  12
MEDFORD        CLOUDY    22  13  68 NW13      29.88R WCI  10
MERRILL        FLURRIES  23  15  69 NW13      29.87R WCI  12
$$

WIZ029-030-035-036-043>047-190800-
CENTRAL WISCONSIN

CITY           SKY/WX    TMP DP  RH WIND       PRES   REMARKS
WAUSAU         CLOUDY    24  15  68 NW13      29.86R WCI  12
MOSINEE        NOT AVBL
MARSHFIELD     CLOUDY    24  13  62 NW21      29.89R WCI   9
STEVENS POINT  CLOUDY    25  13  61 NW15      29.88S WCI  12
WAUPACA        CLOUDY    31  18  59 NW13G20   29.87R WCI  21
WAUTOMA        CLOUDY    28  17  63 NW16G23   29.88S WCI  16
WISC RAPIDS    CLOUDY    27  15  61 N13       29.90R WCI  16
CAMP DOUGLAS   CLOUDY   N/A N/A N/A W14G22    29.94R
$$

WIZ011>013-019>022-031-037>040-048>050-190800-
NORTHEAST WISCONSIN

CITY           SKY/WX    TMP DP  RH WIND       PRES   REMARKS
ANTIGO         FLURRIES  22  14  71 NW17G23   29.83S WCI   8
SHAWANO        CLOUDY    31  21  67 NW10      29.85R WCI  22
OCONTO         CLOUDY    31  21  66 NW12      29.82R WCI  21
STURGEON BAY   CLOUDY    31  23  72 NW18G25   29.80R WCI  19
GREEN BAY      CLOUDY    32  25  75 NW15      29.83R WCI  22
MANITOWOC      CLOUDY    32  25  74 NW16      29.82R WCI  21
APPLETON       CLOUDY    30  19  64 NW13G18   29.83R WCI  20
CLINTONVILLE   CLOUDY    28  18  64 NW10G17   29.86R WCI  19
OSHKOSH        CLOUDY    30  20  66 NW18G25   29.85R WCI  18
$$

WIZ032>034-041-042-053>061-190800-
SOUTHWEST WISCONSIN

CITY           SKY/WX    TMP DP  RH WIND       PRES   REMARKS
LA CROSSE      CLOUDY    27  16  63 NW24      30.00R WCI  12
SPARTA         CLOUDY    27  17  67 NW14      29.97R WCI  15
VIROQUA        CLOUDY    26  18  73 NW16G22   29.94R WCI  13
BOSCOBEL       CLOUDY    29  17  61 VRB5      29.98R WCI  24
PRAIRIE DU CHI CLOUDY    28  18  65 W15       29.99S WCI  16
PLATTEVILLE    PTCLDY    27  20  76 NW15G21   29.95R WCI  15
$$

WIZ056-057-062-063-064-067-068-190800-
SOUTH CENTRAL WISCONSIN

CITY           SKY/WX    TMP DP  RH WIND       PRES   REMARKS
REEDSBURG      CLOUDY    28  17  65 W15G23    29.92R WCI  16
BARABOO/DELLS  CLOUDY    28  18  64 NW7       29.90R WCI  21
LONE ROCK      CLOUDY    29  19  66 NW13G21   29.94R WCI  19
MINERAL POINT  CLOUDY    30  25  80 NW10G18   29.92R WCI  21
MADISON        CLOUDY    30  20  66 NW12G21   29.89R WCI  20
MIDDLETON      CLOUDY    31  21  67 NW18G24   29.90R WCI  19
WATERTOWN      CLOUDY    31  23  71 NW9       29.86R WCI  23
MONROE         CLEAR     28  21  74 NW13      29.90R WCI  18
JANESVILLE     CLOUDY    32  25  74 NW13      29.88S WCI  22
$$

WIZ051-052-058>065-066-070>072-190800-
SOUTHEAST WISCONSIN

CITY           SKY/WX    TMP DP  RH WIND       PRES   REMARKS
MILWAUKEE      CLOUDY    36  24  62 NW15      29.84R WCI  27
WAUKESHA       CLOUDY    32  23  69 NW15      29.85R WCI  22
MILWAUKEE/TIMM CLOUDY    32  21  64 NW17G24   29.84R WCI  21
RACINE         CLOUDY    35  24  64 NW12G21   29.85R WCI  27
BURLINGTON     CLOUDY    34  28  77 NW18G24   29.86R WCI  23
KENOSHA        CLOUDY    34  25  69 NW13G25   29.84R WCI  25
FOND DU LAC    CLOUDY    32  20  61 NW14      29.85R WCI  22
SHEBOYGAN      CLOUDY    32  25  75 NW15      29.82R WCI  22
WEST BEND      CLOUDY    32  23  69 NW10G18   29.83R WCI  24
JUNEAU         CLOUDY    30  21  69 NW12      29.87R WCI  20
$$

LSZ147-162-190800-
LAKE SUPERIOR

STATION/POSITION TIME  TEMP    WIND        PRES    WAVE
                       AIR SEA DIR/SP/G            HT/PER
                 (UTC) (F)     (DEG/KT/KT) (MB)    (FT/S)
DEVILS ISLAND    0700   21     290/ 13/ 17 1014.6F
SAXON HARBOR     0630   24     290/ 12/ 20 1013.2S
$$

LMZ867-665-643>646-190800-
LAKE MICHIGAN

STATION/POSITION TIME  TEMP    WIND        PRES    WAVE
                       AIR SEA DIR/SP/G            HT/PER
                 (UTC) (F)     (DEG/KT/KT) (MB)    (FT/S)
N MID LAKE BUOY  0650   34 48  320/ 23/ 29 1007.3R   6/ 5
NORTHPORT PIER   0638   34     320/ 23/ 25 1007.8R
SHEBOYGAN LAKESH 0700   33     300/ 16/ 19 1010.1R
PORT WASHINGTON  0630   35     300/ 11/ 15 1010.8S
MILWAUKEE LAKESH 0650   35     310/ 13/ 17   N/A
S MID LAKE BUOY  0650   39 49  340/ 21/ 27 1009.0R   8/ 8
KENOSHA   LAKESH 0700   35     310/ 10/ 14 1010.5
$$

TC  - TEMPERATURE IN CELSIUS
VSB - VISIBILITY IN STATUTE MILES
WCI - WIND CHILL INDEX
HX  - HEAT INDEX





USA.gov is the U.S. government's official web portal to all federal, state and local government web resources and services.